[[{"header":{"parameterUnit":"m.s-1","parameterCategory":1,"la1":30.2991,"la2":30.254,"lo1":-89.0895,"lo2":-89.0444,"dy":0.0017,"dx":0.0017,"nx":28,"ny":28,"refTime":"2025-11-24T03:00:00:Z","depth":0,"parameterNumber":2,"parameterNumberName":"U-component_of_WINDS"},"data":[0,0,0,0,0,0,0,0,0,0,0,0,0,0,0,0,0,0,0,0,0,0,0,0,0,0,0,0,0,0,0,0,0,0,0,0,0,0,0,0,0,0,0,0,0,0,0,0,0,0,0,0,0,0,0,0,0,0,-1.2575,-1.2575,0,-1.2567,-1.2567,-1.2567,-1.2513,-1.2511,-1.251,-1.2509,-1.2504,-1.2505,-1.2506,0,0,0,0,0,0,0,0,0,0,0,0,0,-1.2545,-1.2545,-1.2575,-1.2575,-1.2575,-1.2567,-1.2567,-1.2567,-1.2513,-1.2511,-1.251,-1.2508,-1.2503,-1.2505,-1.2506,0,0,0,0,0,0,0,0,0,0,0,0,0,-1.255,-1.2546,-1.2575,-1.2547,-1.2544,-1.2567,-1.2567,-1.2567,-1.2513,-1.2511,-1.2509,-1.2507,-1.2503,-1.2505,-1.2506,-1.2557,0,0,-1.2511,-1.2512,0,0,0,0,0,0,0,0,-1.2549,-1.2551,-1.2551,-1.2549,-1.2546,-1.2539,-1.2555,-1.2564,-1.2514,-1.2525,-1.2509,-1.2506,-1.2517,-1.2518,-1.2521,-1.2557,-1.2556,-1.2511,-1.2513,-1.2513,-1.2514,0,0,0,0,0,0,0,-1.2549,-1.2551,-1.2572,-1.2551,-1.2548,-1.2535,-1.2534,-1.2556,-1.2533,-1.2524,-1.252,-1.252,-1.2515,-1.2519,-1.252,-1.2556,-1.2511,-1.2513,-1.2514,-1.2515,-1.2633,-1.2635,0,0,0,0,0,0,-1.2552,-1.2551,-1.2572,-1.2572,-1.2543,-1.2537,-1.2536,-1.2543,-1.2532,-1.2528,-1.2521,-1.2517,-1.2517,-1.2518,-1.252,-1.2578,-1.2513,-1.2515,-1.2516,-1.2631,-1.2633,-1.2636,0,0,0,0,0,0,-1.2552,-1.2555,-1.2572,-1.256,-1.2561,-1.254,-1.2549,-1.2544,-1.2548,-1.253,-1.2526,-1.2529,-1.2516,-1.2517,-1.2548,-1.2577,-1.2516,-1.2517,-1.2628,-1.2632,-1.2635,-1.2696,0,0,0,0,0,0,-1.2551,-1.2555,-1.2574,-1.2561,-1.2562,-1.26,-1.2551,-1.2545,-1.255,-1.2545,-1.2537,-1.2533,-1.2514,-1.2546,-1.2549,-1.2579,-1.2518,-1.2626,-1.263,-1.2634,-1.2691,-1.2701,-1.2709,0,0,0,0,0,-1.255,-1.2592,-1.2575,-1.2578,-1.2585,-1.2602,-1.2603,-1.2579,-1.2553,-1.2572,-1.256,-1.2534,-1.2573,-1.2549,-1.2553,-1.2583,-1.2624,-1.2629,-1.2633,-1.2687,-1.2699,-1.2709,0,0,0,0,0,0,-1.261,-1.259,-1.2571,-1.2609,-1.2608,-1.2593,-1.2616,-1.2593,-1.2599,-1.2594,-1.2565,-1.2564,-1.2599,-1.2594,-1.2567,-1.2631,-1.2594,-1.26,-1.2633,-1.2644,-1.2653,-1.2654,-1.252,0,0,0,0,0,-1.2627,-1.2642,-1.2624,-1.266,-1.266,-1.2638,-1.2645,-1.2626,-1.2624,-1.2623,-1.2614,-1.2614,-1.2626,-1.2635,-1.2645,-1.269,-1.2687,-1.2712,-1.2721,-1.2729,-1.2735,-1.2758,-1.2769,-1.2652,-1.2651,-1.2651,0,0,-1.2664,-1.2655,-1.2666,-1.2671,-1.2668,-1.2685,-1.2638,-1.2658,-1.267,-1.2627,-1.2655,-1.2648,-1.2645,-1.2683,-1.2699,-1.268,-1.2766,-1.2735,-1.2741,-1.2743,-1.2764,-1.2775,-1.2785,-1.2655,-1.2654,-1.2654,0,0,-1.2739,-1.2733,-1.2762,-1.276,-1.2754,-1.274,-1.2747,-1.2735,-1.2729,-1.2756,-1.2724,-1.2738,-1.276,-1.2759,-1.2762,-1.2835,-1.2811,-1.2839,-1.2887,-1.291,-1.2919,-1.2927,-1.2954,-1.2964,-1.2845,-1.2845,-1.2845,0,-1.2786,-1.2809,-1.2781,-1.2802,-1.2806,-1.2766,-1.2795,-1.2794,-1.2793,-1.2797,-1.2775,-1.2801,-1.2796,-1.2833,-1.2851,-1.2854,-1.2862,-1.2841,-1.292,-1.2928,-1.2935,-1.296,-1.297,-1.2849,-1.2848,-1.2848,-1.2847,0,-1.2866,-1.2883,-1.2907,-1.2906,-1.2911,-1.2937,-1.2914,-1.2923,-1.2904,-1.2891,-1.292,-1.2912,-1.2921,-1.2928,-1.291,-1.2962,-1.2951,-1.2925,-1.2887,-1.295,-1.2973,-1.2983,-1.2854,-1.2852,-1.2851,-1.285,0,0,-1.2981,-1.2962,-1.2972,-1.2971,-1.2961,-1.2974,-1.2997,-1.3004,-1.3013,-1.3013,-1.3033,-1.3052,-1.3027,-1.303,-1.3012,-1.3032,-1.3091,-1.3003,-1.3003,-1.3021,-1.3149,-1.3169,-1.3181,-1.3074,-1.3076,-1.3077,-1.3149,0,-1.3053,-1.3092,-1.3067,-1.311,-1.3125,-1.3086,-1.3107,-1.3104,-1.3092,-1.3104,-1.3092,-1.3105,-1.3072,-1.3073,-1.3092,-1.308,-1.3117,-1.3074,-1.3093,-1.3094,-1.3096,-1.3193,-1.3215,-1.3283,-1.3158,-1.316,-1.3161,0,-1.3144,-1.3147,-1.3191,-1.3178,-1.3183,-1.3202,-1.3206,-1.3217,-1.3213,-1.3203,-1.3206,-1.3182,-1.3205,-1.3166,-1.3198,-1.3169,-1.3175,-1.3171,-1.3173,-1.3175,-1.3132,-1.3198,-1.3304,-1.3315,-1.3175,-1.3174,-1.3173,0,-1.3224,-1.3239,-1.3267,-1.3267,-1.3253,-1.3267,-1.3262,-1.3255,-1.3261,-1.3264,-1.3267,-1.3274,-1.3278,-1.3284,-1.3262,-1.3236,-1.3297,-1.3256,-1.329,-1.3291,-1.3306,-1.3305,-1.3415,-1.3308,-1.3308,-1.3308,-1.3307,0,-1.3308,-1.3337,-1.3302,-1.332,-1.3351,-1.3322,-1.3354,-1.3344,-1.3339,-1.3354,-1.3321,-1.3337,-1.3307,-1.332,-1.3303,-1.3332,-1.3334,-1.3327,-1.3323,-1.3331,-1.3332,-1.3335,-1.333,-1.331,-1.331,-1.3309,-1.3309,0,-1.3404,-1.3381,-1.341,-1.3393,-1.3389,-1.3413,-1.3399,-1.3415,-1.3401,-1.3421,-1.3424,-1.3402,-1.3415,-1.3394,-1.3405,-1.3393,-1.3434,-1.3421,-1.3435,-1.3432,-1.3467,-1.3464,-1.3584,-1.3598,-1.3481,-1.3482,-1.3483,0,-1.346,-1.348,-1.3466,-1.3473,-1.3469,-1.3482,-1.3487,-1.3459,-1.3465,-1.3461,-1.3478,-1.3488,-1.3494,-1.3517,-1.3503,-1.3511,-1.3499,-1.354,-1.35,-1.3507,-1.3501,-1.35,-1.3502,-1.3549,-1.355,-1.3552,-1.3552,0,-1.3562,-1.3549,-1.3557,-1.3561,-1.3567,-1.3569,-1.3569,-1.3577,-1.3547,-1.3557,-1.3569,-1.3574,-1.3584,-1.3595,-1.3599,-1.3594,-1.3569,-1.3565,-1.3573,-1.3583,-1.359,-1.3587,-1.3458,-1.3563,-1.3562,-1.3561,-1.356,-1.356,-1.3639,-1.3656,-1.3648,-1.3658,-1.3654,-1.3654,-1.3668,-1.3655,-1.3664,-1.367,-1.3652,-1.3669,-1.3663,-1.3666,-1.3664,-1.3677,-1.3659,-1.3671,-1.3674,-1.3678,-1.3684,-1.3587,-1.3678,-1.3677,-1.3677,-1.3677,-1.3677,0,-1.374,-1.3733,-1.3742,-1.3742,-1.3749,-1.3723,-1.3721,-1.373,-1.3744,-1.374,-1.3747,-1.3761,-1.3771,-1.3757,-1.3764,-1.3777,-1.3766,-1.378,-1.378,-1.3779,-1.3699,-1.3692,-1.3789,-1.3789,-1.3789,-1.3789,-1.3789,-1.3789,-1.3794,-1.3821,-1.3807,-1.3832,-1.3824,-1.3839,-1.384,-1.384,-1.3837,-1.3854,-1.3862,-1.3852,-1.3844,-1.3851,-1.3859,-1.3854,-1.3859,-1.3878,-1.387,-1.3796,-1.3785,-1.3774,-1.3767,-1.3879,-1.3879,-1.3948,-1.3949,-1.3949]},{"header":{"parameterUnit":"m.s-1","parameterCategory":1,"la1":30.2991,"la2":30.254,"lo1":-89.0895,"lo2":-89.0444,"dy":0.0017,"dx":0.0017,"nx":28,"ny":28,"refTime":"2025-11-24T03:00:00:Z","depth":0,"parameterNumber":3,"parameterNumberName":"V-component_of_WINDS"},"data":[0,0,0,0,0,0,0,0,0,0,0,0,0,0,0,0,0,0,0,0,0,0,0,0,0,0,0,0,0,0,0,0,0,0,0,0,0,0,0,0,0,0,0,0,0,0,0,0,0,0,0,0,0,0,0,0,0,0,-1.5643,-1.5644,0,-1.5693,-1.5694,-1.5694,-1.5702,-1.5701,-1.5701,-1.57,-1.575,-1.5752,-1.5753,0,0,0,0,0,0,0,0,0,0,0,0,0,-1.5552,-1.5554,-1.5643,-1.5644,-1.5644,-1.5693,-1.5694,-1.5694,-1.5702,-1.5701,-1.5701,-1.57,-1.5749,-1.5751,-1.5754,0,0,0,0,0,0,0,0,0,0,0,0,0,-1.5596,-1.5554,-1.5643,-1.5654,-1.5656,-1.5693,-1.5694,-1.5695,-1.5702,-1.5701,-1.5701,-1.57,-1.5749,-1.5751,-1.5754,-1.5783,0,0,-1.5762,-1.5763,0,0,0,0,0,0,0,0,-1.5593,-1.5599,-1.5652,-1.5653,-1.5655,-1.5691,-1.568,-1.5724,-1.5702,-1.5684,-1.57,-1.57,-1.5731,-1.5735,-1.5746,-1.5786,-1.5788,-1.5762,-1.5764,-1.5765,-1.5765,0,0,0,0,0,0,0,-1.559,-1.5597,-1.5663,-1.5653,-1.5655,-1.5656,-1.5661,-1.5688,-1.5711,-1.5686,-1.5686,-1.5692,-1.5731,-1.5743,-1.5747,-1.5788,-1.5762,-1.5764,-1.5766,-1.5767,-1.5855,-1.5855,0,0,0,0,0,0,-1.5585,-1.5594,-1.5661,-1.5664,-1.5622,-1.5658,-1.5664,-1.568,-1.571,-1.5714,-1.5693,-1.5693,-1.5739,-1.5744,-1.5748,-1.5785,-1.5765,-1.5767,-1.5769,-1.5854,-1.5855,-1.5856,0,0,0,0,0,0,-1.5583,-1.5591,-1.5659,-1.563,-1.5638,-1.566,-1.5678,-1.5681,-1.5693,-1.5716,-1.572,-1.5701,-1.5739,-1.5745,-1.5775,-1.5787,-1.5768,-1.5771,-1.5853,-1.5854,-1.5855,-1.5858,0,0,0,0,0,0,-1.5581,-1.5591,-1.5603,-1.563,-1.564,-1.5685,-1.5679,-1.5683,-1.5697,-1.5697,-1.5724,-1.5728,-1.5738,-1.5771,-1.5777,-1.579,-1.5773,-1.5852,-1.5854,-1.5855,-1.5856,-1.5859,-1.586,0,0,0,0,0,-1.5578,-1.5601,-1.5603,-1.5611,-1.5655,-1.5686,-1.5692,-1.5704,-1.5698,-1.571,-1.5725,-1.5727,-1.5784,-1.5774,-1.5781,-1.5795,-1.5851,-1.5853,-1.5855,-1.5856,-1.5858,-1.586,0,0,0,0,0,0,-1.5574,-1.5605,-1.5607,-1.564,-1.5661,-1.5687,-1.5702,-1.5706,-1.5728,-1.5727,-1.5741,-1.5747,-1.5776,-1.5788,-1.5776,-1.5824,-1.5817,-1.5821,-1.5815,-1.5818,-1.582,-1.5816,-1.5775,0,0,0,0,0,-1.5577,-1.56,-1.5625,-1.5652,-1.5662,-1.568,-1.5694,-1.5702,-1.5723,-1.5731,-1.5748,-1.5768,-1.579,-1.5805,-1.5827,-1.5858,-1.5864,-1.5871,-1.5873,-1.5875,-1.5877,-1.5894,-1.5898,-1.5861,-1.5861,-1.5861,0,0,-1.5583,-1.5603,-1.5616,-1.5652,-1.5668,-1.5691,-1.5687,-1.5712,-1.5728,-1.5735,-1.5764,-1.5777,-1.58,-1.5831,-1.5845,-1.5842,-1.5889,-1.5877,-1.5878,-1.588,-1.5896,-1.59,-1.5903,-1.5863,-1.5862,-1.5862,0,0,-1.5607,-1.5624,-1.5648,-1.5665,-1.569,-1.5702,-1.5708,-1.5734,-1.5743,-1.5773,-1.5778,-1.5797,-1.5836,-1.5852,-1.5865,-1.5894,-1.5897,-1.5901,-1.5911,-1.5928,-1.5931,-1.5933,-1.5943,-1.5947,-1.5904,-1.5904,-1.5904,0,-1.5611,-1.5646,-1.566,-1.5684,-1.5699,-1.5706,-1.573,-1.5745,-1.5776,-1.5786,-1.5782,-1.5831,-1.5847,-1.5881,-1.5888,-1.5899,-1.5905,-1.5898,-1.5929,-1.5932,-1.5935,-1.5944,-1.5948,-1.5904,-1.5904,-1.5904,-1.5904,0,-1.565,-1.5675,-1.5691,-1.5721,-1.5738,-1.5762,-1.5778,-1.5793,-1.5799,-1.5812,-1.5841,-1.5861,-1.5887,-1.5895,-1.5902,-1.5931,-1.5928,-1.5927,-1.592,-1.5938,-1.5947,-1.5951,-1.5904,-1.5904,-1.5904,-1.5904,0,0,-1.5673,-1.571,-1.5716,-1.5729,-1.5758,-1.5776,-1.58,-1.5826,-1.5838,-1.5859,-1.5879,-1.5911,-1.591,-1.5925,-1.5933,-1.5948,-1.5969,-1.5945,-1.5945,-1.5948,-1.6001,-1.6002,-1.6006,-1.5971,-1.5972,-1.5972,-1.5999,0,-1.5699,-1.5743,-1.5755,-1.5791,-1.5814,-1.5821,-1.5842,-1.5861,-1.5873,-1.5893,-1.5906,-1.5928,-1.5925,-1.5934,-1.5949,-1.5963,-1.598,-1.5962,-1.5989,-1.599,-1.5983,-1.6011,-1.6012,-1.6036,-1.6003,-1.6004,-1.6004,0,-1.5735,-1.5758,-1.5796,-1.5822,-1.5831,-1.585,-1.5874,-1.5893,-1.5915,-1.5923,-1.5939,-1.5946,-1.597,-1.5962,-1.5996,-1.5983,-1.5995,-1.6003,-1.6005,-1.6007,-1.5998,-1.6014,-1.6045,-1.6048,-1.601,-1.601,-1.6009,0,-1.5747,-1.5787,-1.5815,-1.5826,-1.5857,-1.5869,-1.5882,-1.5903,-1.5918,-1.5939,-1.5949,-1.5972,-1.5985,-1.6003,-1.6015,-1.6008,-1.6047,-1.604,-1.6054,-1.6053,-1.6061,-1.6061,-1.6094,-1.607,-1.607,-1.6069,-1.6069,0,-1.5775,-1.5798,-1.5821,-1.5838,-1.5864,-1.5878,-1.5903,-1.5916,-1.5935,-1.5954,-1.5962,-1.598,-1.5995,-1.6015,-1.6025,-1.6051,-1.6057,-1.6063,-1.6065,-1.6062,-1.6061,-1.607,-1.6068,-1.607,-1.607,-1.607,-1.607,0,-1.5793,-1.5809,-1.584,-1.5866,-1.5873,-1.5891,-1.5913,-1.593,-1.5942,-1.5966,-1.5973,-1.5992,-1.6016,-1.603,-1.606,-1.6067,-1.6095,-1.6097,-1.6088,-1.6089,-1.6101,-1.61,-1.6141,-1.6147,-1.6119,-1.6119,-1.6119,0,-1.5809,-1.5827,-1.5856,-1.5869,-1.5883,-1.5905,-1.592,-1.5934,-1.595,-1.5975,-1.5989,-1.6013,-1.6033,-1.6071,-1.6087,-1.6109,-1.6112,-1.6124,-1.6115,-1.6111,-1.6111,-1.611,-1.6111,-1.6126,-1.6126,-1.6126,-1.6126,0,-1.5837,-1.5844,-1.5865,-1.589,-1.5908,-1.5928,-1.5947,-1.5958,-1.5976,-1.5992,-1.6017,-1.6032,-1.6063,-1.6087,-1.6111,-1.6124,-1.6128,-1.6129,-1.6134,-1.613,-1.6124,-1.6127,-1.6092,-1.6128,-1.6128,-1.6128,-1.6128,-1.6128,-1.5854,-1.587,-1.5893,-1.5917,-1.5933,-1.5951,-1.5968,-1.5983,-1.6004,-1.603,-1.6037,-1.6063,-1.6083,-1.6116,-1.613,-1.6149,-1.6147,-1.6153,-1.6155,-1.6156,-1.6156,-1.6121,-1.6154,-1.6154,-1.6154,-1.6154,-1.6154,0,-1.5881,-1.5896,-1.5918,-1.5946,-1.5964,-1.5967,-1.5989,-1.6004,-1.6027,-1.6046,-1.6066,-1.6094,-1.6117,-1.6135,-1.6159,-1.6171,-1.6173,-1.6177,-1.6176,-1.6178,-1.6157,-1.6151,-1.6174,-1.6174,-1.6174,-1.6174,-1.6174,-1.6174,-1.5898,-1.5926,-1.5935,-1.5971,-1.5985,-1.6011,-1.6023,-1.604,-1.6055,-1.6086,-1.6106,-1.6118,-1.6136,-1.6161,-1.6182,-1.6187,-1.6195,-1.6198,-1.6202,-1.6182,-1.618,-1.6178,-1.6172,-1.6199,-1.6199,-1.6222,-1.6222,-1.6222]}]]